W7KKE-3 Weather Reports


Display with metric or nautical units.
time (UTC)temp
F
wind
direction
speed
MPH
gust
MPH
rain 1hr
in
rain 24hr
in
rain mn
in
humidity
%
barometer
mb
20160208100056 53 112 0.0 7.0 0.00 0.00 0.00 95 1027.8
20160208095555 53 88 2.0 7.0 0.00 0.00 0.00 95 1027.8
20160208095055 53 245 1.0 7.0 0.00 0.00 0.00 95 1027.6
20160208094554 53 93 3.0 6.0 0.00 0.00 0.00 95 1027.6
20160208094056 53 120 2.0 9.0 0.00 0.00 0.00 95 1027.7
20160208093554 53 84 0.0 9.0 0.00 0.00 0.00 96 1027.3
20160208093054 53 85 2.0 9.0 0.00 0.00 0.00 96 1027.7
20160208092555 52 100 2.0 7.0 0.00 0.00 0.00 96 1027.8
20160208092054 52 64 2.0 8.0 0.00 0.00 0.00 96 1027.8
20160208091554 52 249 2.0 8.0 0.00 0.00 0.00 96 1027.9
20160208091055 52 63 2.0 8.0 0.00 0.00 0.00 96 1028.0
20160208090554 52 113 1.0 4.0 0.00 0.00 0.00 96 1028.1
20160208090054 52 131 0.0 9.0 0.00 0.00 0.00 96 1028.2
20160208085555 52 0 0.0 9.0 0.00 0.00 0.00 96 1028.2
20160208085054 52 140 0.0 9.0 0.00 0.00 0.00 96 1028.3
20160208084556 52 137 0.0 6.0 0.00 0.00 0.00 96 1028.3
20160208084055 52 113 0.0 6.0 0.00 0.00 0.00 96 1028.2
20160208083554 52 151 0.0 6.0 0.00 0.00 0.00 96 1028.4
20160208083054 52 0 0.0 3.0 0.00 0.00 0.00 96 1028.4
20160208082555 52 121 0.0 3.0 0.00 0.00 0.00 96 1028.5
20160208082054 52 128 0.0 3.0 0.00 0.00 0.00 96 1028.5
20160208081554 52 0 0.0 0.0 0.00 0.00 0.00 96 1028.3
20160208081055 52 148 0.0 11.0 0.00 0.00 0.00 96 1028.5
20160208080554 53 144 0.0 11.0 0.00 0.00 0.00 96 1028.5
20160208080055 53 82 3.0 11.0 0.00 0.00 0.00 96 1028.5
20160208075556 53 100 1.0 4.0 0.00 0.00 0.00 96 1028.6
20160208074554 53 0 0.0 0.0 0.00 0.00 0.00 96 1028.7
20160208074055 53 0 0.0 0.0 0.00 0.00 0.00 96 1028.7
20160208073554 53 0 0.0 0.0 0.00 0.00 0.00 96 1028.7
20160208072555 53 0 0.0 0.0 0.00 0.00 0.00 96 1028.6
20160208072054 53 0 0.0 0.0 0.00 0.00 0.00 96 1028.5
20160208071554 53 0 0.0 0.0 0.00 0.00 0.00 96 1028.3
20160208071055 53 0 0.0 0.0 0.00 0.00 0.00 96 1028.3
20160208070554 53 0 0.0 0.0 0.00 0.00 0.00 96 1028.3
20160208070054 53 0 0.0 0.0 0.00 0.00 0.00 96 1028.3
20160208065555 53 0 0.0 0.0 0.00 0.00 0.00 96 1028.3
20160208065054 53 0 0.0 0.0 0.00 0.00 0.00 96 1028.2
20160208064554 53 0 0.0 0.0 0.00 0.00 0.00 96 1028.2
20160208064055 53 0 0.0 0.0 0.00 0.00 0.00 95 1028.2
20160208063554 53 0 0.0 0.0 0.00 0.00 0.00 95 1028.2
20160208062555 53 0 0.0 0.0 0.00 0.00 0.00 95 1028.2
20160208062054 53 0 0.0 0.0 0.00 0.00 0.00 95 1028.2
20160208061055 53 0 0.0 0.0 0.00 0.00 0.00 95 1028.1
20160208060554 53 0 0.0 0.0 0.00 0.00 0.00 95 1028.4
20160208055555 53 0 0.0 0.0 0.00 0.00 0.00 95 1028.3
20160208055055 53 0 0.0 0.0 0.00 0.00 0.00 95 1028.4
20160208054554 53 0 0.0 0.0 0.00 0.00 0.00 95 1028.4
20160208054055 54 0 0.0 0.0 0.00 0.00 0.00 95 1028.5
20160208053554 54 0 0.0 0.0 0.00 0.00 0.00 95 1028.5
20160208053054 54 0 0.0 0.0 0.00 0.00 0.00 95 1028.5
20160208052555 54 0 0.0 0.0 0.00 0.00 0.00 95 1028.4
20160208052055 54 0 0.0 0.0 0.00 0.00 0.00 95 1028.5
20160208051554 54 0 0.0 0.0 0.00 0.00 0.00 95 1028.5
20160208051055 54 0 0.0 0.0 0.00 0.00 0.00 95 1028.5
20160208050554 54 0 0.0 0.0 0.00 0.00 0.00 95 1028.6
20160208050055 54 0 0.0 3.0 0.00 0.00 0.00 95 1028.6
20160208045555 54 0 0.0 3.0 0.00 0.00 0.00 95 1028.5
20160208045054 54 124 0.0 3.0 0.00 0.00 0.00 95 1028.4
20160208044554 54 99 0.0 7.0 0.00 0.00 0.00 95 1028.4
20160208044056 54 113 1.0 7.0 0.00 0.00 0.00 95 1028.3
20160208043554 54 74 0.0 7.0 0.00 0.00 0.00 95 1028.3
20160208043054 54 100 3.0 6.0 0.00 0.00 0.00 95 1028.3
20160208042555 54 126 0.0 6.0 0.00 0.00 0.00 95 1028.3
20160208042054 54 210 1.0 5.0 0.00 0.00 0.00 95 1028.3
20160208041554 54 103 0.0 4.0 0.00 0.00 0.00 95 1028.4
20160208041055 54 0 0.0 6.0 0.00 0.00 0.00 95 1028.4
20160208040054 55 105 0.0 6.0 0.00 0.00 0.00 95 1028.5
20160208035555 55 0 0.0 0.0 0.00 0.00 0.00 95 1028.6
20160208035055 55 0 0.0 3.0 0.00 0.00 0.00 95 1028.6
20160208034554 55 0 0.0 3.0 0.00 0.00 0.00 95 1028.6
20160208034055 55 137 0.0 3.0 0.00 0.00 0.00 94 1028.7
20160208033555 55 0 0.0 0.0 0.00 0.00 0.00 94 1028.7
20160208033054 55 0 0.0 0.0 0.00 0.00 0.00 94 1028.8
20160208032555 56 0 0.0 0.0 0.00 0.00 0.00 94 1028.8
20160208032054 56 0 0.0 0.0 0.00 0.00 0.00 94 1028.8
20160208031554 56 0 0.0 0.0 0.00 0.00 0.00 93 1028.8
20160208031055 56 0 0.0 0.0 0.00 0.00 0.00 93 1028.5
20160208030554 56 0 0.0 0.0 0.00 0.00 0.00 93 1028.9
20160208030054 56 200 0.0 5.0 0.00 0.00 0.00 93 1028.8
20160208025555 57 121 0.0 5.0 0.00 0.00 0.00 93 1028.9
20160208025054 57 71 0.0 5.0 0.00 0.00 0.00 92 1028.9
20160208024554 57 194 0.0 5.0 0.00 0.00 0.00 92 1029.0
20160208024055 57 7 0.0 5.0 0.00 0.00 0.00 92 1028.9
20160208023554 57 131 0.0 4.0 0.00 0.00 0.00 92 1029.0
20160208023054 57 0 0.0 4.0 0.00 0.00 0.00 91 1029.0
20160208022555 58 0 0.0 4.0 0.00 0.00 0.00 91 1029.0
20160208022054 58 89 0.0 4.0 0.00 0.00 0.00 91 1029.0
20160208021554 58 0 1.0 6.0 0.00 0.00 0.00 91 1029.0
20160208021054 58 77 0.0 6.0 0.00 0.00 0.00 90 1029.0
20160208020554 59 120 1.0 6.0 0.00 0.00 0.00 90 1028.7
20160208015555 59 57 1.0 4.0 0.00 0.00 0.00 89 1028.9
20160208015054 60 0 0.0 0.0 0.00 0.00 0.00 89 1028.7
20160208014554 60 0 0.0 0.0 0.00 0.00 0.00 88 1028.6
20160208014054 60 0 0.0 3.0 0.00 0.00 0.00 88 1029.0
20160208013554 60 0 0.0 3.0 0.00 0.00 0.00 87 1028.7
20160208013054 61 63 0.0 3.0 0.00 0.00 0.00 87 1028.8
20160208012555 61 0 0.0 8.0 0.00 0.00 0.00 86 1029.1
20160208012054 61 18 0.0 8.0 0.00 0.00 0.00 86 1028.9
20160208011554 62 79 0.0 8.0 0.00 0.00 0.00 85 1029.2
20160208011054 62 65 0.0 5.0 0.00 0.00 0.00 85 1029.2
20160208010554 62 96 0.0 4.0 0.00 0.00 0.00 85 1029.2
20160208005054 63 0 0.0 0.0 0.00 0.00 0.00 83 1029.1
20160208004554 63 39 0.0 6.0 0.00 0.00 0.00 83 1029.1
20160208004054 63 170 1.0 6.0 0.00 0.00 0.00 82 1029.2
20160208002555 64 70 2.0 8.0 0.00 0.00 0.00 82 1029.0
20160208002054 64 112 0.0 8.0 0.00 0.00 0.00 82 1029.0
20160208001554 64 93 0.0 6.0 0.00 0.00 0.00 81 1028.9
20160208001054 64 114 2.0 6.0 0.00 0.00 0.00 81 1029.1
20160208000554 64 144 0.0 6.0 0.00 0.00 0.00 81 1029.2
20160208000054 65 65 1.0 8.0 0.00 0.00 0.00 81 1029.1
20160207235555 65 43 1.0 8.0 0.00 0.00 0.00 81 1029.2
20160207235054 65 18 3.0 8.0 0.00 0.00 0.00 81 1029.1
20160207234054 65 37 2.0 7.0 0.00 0.00 0.00 80 1029.1
20160207233554 65 120 3.0 8.0 0.00 0.00 0.00 81 1029.2
20160207233054 65 145 0.0 8.0 0.00 0.00 0.00 82 1029.1
20160207232555 65 144 2.0 8.0 0.00 0.00 0.00 81 1029.1
20160207232055 65 116 1.0 5.0 0.00 0.00 0.00 81 1029.1
20160207231555 64 148 0.0 5.0 0.00 0.00 0.00 81 1029.3
20160207231054 64 100 1.0 10.0 0.00 0.00 0.00 81 1029.3
20160207230554 64 89 0.0 10.0 0.00 0.00 0.00 82 1028.9
20160207230054 64 128 1.0 10.0 0.00 0.00 0.00 82 1029.3
20160207225555 64 15 1.0 6.0 0.00 0.00 0.00 82 1029.3
20160207225054 64 273 1.0 8.0 0.00 0.00 0.00 82 1029.3
20160207224555 64 282 1.0 8.0 0.00 0.00 0.00 82 1029.3
20160207224054 64 95 0.0 8.0 0.00 0.00 0.00 82 1029.4
20160207223554 64 91 4.0 10.0 0.00 0.00 0.00 83 1029.4
20160207223054 63 82 3.0 10.0 0.00 0.00 0.00 83 1029.3
20160207222555 63 106 1.0 10.0 0.00 0.00 0.00 83 1029.3
20160207222054 63 98 1.0 10.0 0.00 0.00 0.00 84 1029.4
20160207221555 63 126 2.0 11.0 0.00 0.00 0.00 84 1029.4
20160207221054 63 263 4.0 11.0 0.00 0.00 0.00 85 1029.3
20160207220554 63 98 1.0 11.0 0.00 0.00 0.00 85 1029.4
20160207215556 62 50 2.0 11.0 0.00 0.00 0.00 86 1029.6
20160207215054 62 91 1.0 11.0 0.00 0.00 0.00 86 1029.7
20160207214555 62 106 1.0 11.0 0.00 0.00 0.00 86 1029.7
20160207214054 62 116 4.0 11.0 0.00 0.00 0.00 86 1029.9
20160207213554 62 134 1.0 11.0 0.00 0.00 0.00 86 1029.9
20160207213054 62 98 6.0 13.0 0.00 0.00 0.00 86 1029.9
20160207212054 61 120 2.0 13.0 0.00 0.00 0.00 87 1030.2
20160207211555 61 124 4.0 11.0 0.00 0.00 0.00 87 1030.3
20160207210054 61 88 4.0 11.0 0.00 0.00 0.00 88 1030.5
20160207205555 61 112 2.0 11.0 0.00 0.00 0.00 88 1030.6
20160207205055 60 58 3.0 11.0 0.00 0.00 0.00 88 1030.6
20160207204555 60 107 4.0 7.0 0.00 0.00 0.00 89 1030.6
20160207204054 60 278 0.0 11.0 0.00 0.00 0.00 89 1030.7
20160207203554 59 95 1.0 11.0 0.00 0.00 0.00 89 1030.7
20160207203054 59 99 3.0 11.0 0.00 0.00 0.00 89 1030.8
20160207202555 59 107 4.0 14.0 0.00 0.00 0.00 89 1030.8
20160207201555 59 98 1.0 14.0 0.00 0.00 0.00 90 1030.8
20160207201055 59 109 3.0 13.0 0.00 0.00 0.00 91 1030.7
20160207200554 59 130 4.0 13.0 0.00 0.00 0.00 91 1030.5
20160207200054 58 106 6.0 13.0 0.00 0.00 0.00 90 1030.8
20160207195555 58 106 5.0 11.0 0.00 0.00 0.00 90 1030.8
20160207195054 58 175 5.0 10.0 0.00 0.00 0.00 90 1031.0
20160207194555 58 79 4.0 14.0 0.00 0.00 0.00 91 1031.1
20160207194054 58 95 4.0 14.0 0.00 0.00 0.00 90 1031.0
20160207193554 58 131 6.0 14.0 0.00 0.00 0.00 91 1031.0
20160207193054 58 102 6.0 13.0 0.00 0.00 0.00 92 1031.0
20160207192555 57 114 6.0 10.0 0.00 0.00 0.00 92 1031.1
20160207192056 57 88 5.0 14.0 0.00 0.00 0.00 93 1031.1
20160207191555 57 103 2.0 14.0 0.00 0.00 0.00 93 1031.1
20160207191054 56 0 4.0 14.0 0.00 0.00 0.00 94 1030.9
20160207190054 56 100 7.0 12.0 0.00 0.00 0.00 94 1031.3
20160207185555 55 79 5.0 12.0 0.00 0.00 0.00 94 1031.3
20160207185054 55 86 4.0 12.0 0.00 0.00 0.00 95 1031.3
20160207184555 55 98 5.0 12.0 0.00 0.00 0.00 95 1031.3
20160207184054 54 77 4.0 11.0 0.00 0.00 0.00 96 1031.4
20160207183554 53 102 7.0 11.0 0.00 0.00 0.00 96 1031.5
20160207183054 52 105 3.0 11.0 0.00 0.00 0.00 97 1031.5
20160207182054 51 128 4.0 14.0 0.00 0.00 0.00 97 1031.6
20160207181554 51 95 2.0 14.0 0.00 0.00 0.00 97 1031.6
20160207181054 51 128 4.0 14.0 0.00 0.00 0.00 97 1031.6
20160207180554 51 96 5.0 10.0 0.00 0.00 0.00 97 1031.7
20160207180054 51 291 2.0 17.0 0.00 0.00 0.00 97 1031.8
20160207175555 51 140 1.0 17.0 0.00 0.00 0.00 97 1031.8
20160207175054 51 95 3.0 17.0 0.00 0.00 0.00 97 1031.4
20160207174555 50 134 4.0 10.0 0.00 0.00 0.00 97 1031.3
20160207174055 50 144 2.0 10.0 0.00 0.00 0.00 97 1031.6
20160207173054 50 137 4.0 9.0 0.00 0.00 0.00 98 1031.8
20160207172555 50 100 3.0 9.0 0.00 0.00 0.00 98 1032.0
20160207172054 50 161 1.0 7.0 0.00 0.00 0.00 98 1032.0
20160207171555 50 149 1.0 12.0 0.00 0.00 0.00 98 1032.0
20160207171055 49 134 1.0 12.0 0.00 0.00 0.00 98 1032.1
20160207170554 49 68 4.0 12.0 0.00 0.00 0.00 98 1032.1
20160207170054 49 142 2.0 11.0 0.00 0.00 0.00 98 1032.0
20160207165554 49 56 4.0 11.0 0.00 0.00 0.00 98 1032.0
20160207165054 49 99 3.0 8.0 0.00 0.00 0.00 98 1031.9
20160207164555 49 120 2.0 13.0 0.00 0.00 0.00 98 1031.5
20160207164054 49 89 1.0 13.0 0.00 0.00 0.00 98 1031.4
20160207163554 49 113 3.0 13.0 0.00 0.00 0.00 98 1031.6
20160207163054 49 102 1.0 9.0 0.00 0.00 0.00 98 1031.8
20160207162554 49 88 0.0 11.0 0.00 0.00 0.00 98 1031.9
20160207162054 49 133 2.0 11.0 0.00 0.00 0.00 98 1031.8
20160207161555 49 114 3.0 11.0 0.00 0.00 0.00 98 1031.9
20160207161054 49 78 1.0 9.0 0.00 0.00 0.00 97 1031.8
20160207160554 49 58 1.0 7.0 0.00 0.00 0.00 97 1031.9
20160207160054 49 210 3.0 10.0 0.00 0.00 0.00 97 1031.8
20160207155554 49 337 3.0 10.0 0.00 0.00 0.00 97 1031.9
20160207155054 49 96 1.0 10.0 0.00 0.00 0.00 97 1031.9
20160207154555 49 95 4.0 9.0 0.00 0.00 0.00 97 1032.0
20160207154054 49 79 3.0 11.0 0.00 0.00 0.00 97 1031.9
20160207153554 49 120 3.0 11.0 0.00 0.00 0.00 97 1031.9
20160207152554 49 131 1.0 11.0 0.00 0.00 0.00 97 1031.7
20160207152054 50 98 3.0 11.0 0.00 0.00 0.00 97 1031.7
20160207151555 50 85 2.0 11.0 0.00 0.00 0.00 97 1031.8
20160207151054 50 137 3.0 8.0 0.00 0.00 0.00 97 1031.7
20160207150554 50 149 1.0 8.0 0.00 0.00 0.00 97 1031.7
20160207145554 50 137 2.0 7.0 0.00 0.00 0.00 97 1031.7
20160207145054 50 105 2.0 7.0 0.00 0.00 0.00 97 1031.8
20160207144554 50 53 0.0 8.0 0.00 0.00 0.00 97 1031.8
20160207144054 50 128 1.0 8.0 0.00 0.00 0.00 97 1031.8
20160207143555 50 323 2.0 8.0 0.00 0.00 0.00 97 1031.9
20160207142555 50 127 0.0 10.0 0.00 0.00 0.00 97 1031.8
20160207141554 50 63 1.0 10.0 0.00 0.00 0.00 97 1031.8
20160207141054 50 54 3.0 10.0 0.00 0.00 0.00 97 1031.8
20160207140554 50 147 0.0 9.0 0.00 0.00 0.00 97 1031.8
20160207135554 50 107 0.0 10.0 0.00 0.00 0.00 97 1031.9
20160207135053 50 91 3.0 10.0 0.00 0.00 0.00 97 1031.9
20160207134554 50 133 4.0 10.0 0.00 0.00 0.00 97 1031.8
20160207134055 50 103 5.0 9.0 0.00 0.00 0.00 97 1031.8
20160207133553 50 107 0.0 13.0 0.00 0.00 0.00 97 1031.8
20160207132054 50 91 3.0 9.0 0.00 0.00 0.00 97 1031.7
20160207131554 50 89 2.0 9.0 0.00 0.00 0.00 97 1031.6
20160207131054 50 133 1.0 11.0 0.00 0.00 0.00 97 1031.7
20160207130553 50 61 1.0 11.0 0.00 0.00 0.00 97 1031.5
20160207130054 50 72 1.0 11.0 0.00 0.00 0.00 97 1031.5
20160207125554 50 133 2.0 12.0 0.00 0.00 0.00 97 1031.3
20160207125054 50 93 2.0 12.0 0.00 0.00 0.00 97 1031.3
20160207124554 50 128 0.0 12.0 0.00 0.00 0.00 97 1031.3
20160207124054 50 68 0.0 8.0 0.00 0.00 0.00 97 1031.3
20160207123553 50 133 0.0 8.0 0.00 0.00 0.00 97 1031.2
20160207122554 50 141 3.0 6.0 0.00 0.00 0.00 97 1031.2
20160207122054 50 74 0.0 10.0 0.00 0.00 0.00 97 1031.2
20160207121554 50 88 3.0 10.0 0.00 0.00 0.00 97 1031.2
20160207121054 50 72 1.0 10.0 0.00 0.00 0.00 96 1031.2
20160207120554 50 126 5.0 9.0 0.00 0.00 0.00 97 1031.2
20160207115556 50 85 2.0 9.0 0.00 0.00 0.00 96 1031.1
20160207115053 50 68 0.0 6.0 0.00 0.00 0.00 96 1031.1
20160207114555 50 25 0.0 9.0 0.00 0.00 0.00 96 1031.1
20160207113553 50 105 4.0 9.0 0.00 0.00 0.00 96 1031.1
20160207113053 50 161 0.0 8.0 0.00 0.00 0.00 96 1031.2
20160207112554 50 133 2.0 8.0 0.00 0.00 0.00 96 1031.2
20160207112053 50 103 3.0 11.0 0.00 0.00 0.00 96 1031.2
20160207111554 50 84 0.0 11.0 0.00 0.00 0.00 96 1031.2
20160207111054 50 44 1.0 11.0 0.00 0.00 0.00 96 1031.3
20160207110554 50 127 0.0 9.0 0.00 0.00 0.00 96 1031.3
20160207110055 50 138 2.0 9.0 0.00 0.00 0.00 96 1031.3
20160207105554 50 72 4.0 7.0 0.00 0.00 0.00 96 1031.4
20160207105053 50 112 2.0 9.0 0.00 0.00 0.00 96 1031.5
20160207104553 50 175 3.0 9.0 0.00 0.00 0.00 96 1031.4
20160207104054 50 107 2.0 9.0 0.00 0.00 0.00 96 1031.3
20160207103553 50 109 2.0 8.0 0.00 0.00 0.00 96 1031.2
20160207103054 50 77 1.0 8.0 0.00 0.00 0.00 96 1031.2
20160207102554 50 64 2.0 7.0 0.00 0.00 0.00 96 1031.2
20160207102053 50 21 0.0 8.0 0.00 0.00 0.00 96 1031.1
20160207101553 50 117 3.0 8.0 0.00 0.00 0.00 96 1031.1
20160207101054 50 144 1.0 8.0 0.00 0.00 0.00 96 1031.1
20160207100553 50 56 2.0 5.0 0.00 0.00 0.00 96 1031.1